Delray Beach, FL (33444)

2:41 PM EST on February 13, 2016 (GMT -0500)
Delray Beach | | Change Station
CLOSE
Current Station
Personal Weather Station
Location: Delray Beach, FL
Elevation: 30 ft
Nearby Weather Stations

Elev 30 ft 26.47 °N, 80.09 °W | Updated 12 seconds ago

Partly Cloudy
Partly Cloudy
79.5 °F
Feels Like 84 °F
N
3.2
Wind Variable Wind from WNW
Gusts 8.3 mph

Today
High -- | Low -- °F
--% Chance of Precip.
Yesterday
High -- | Low -- °F
Precip. -- in
Pressure 30.17 in
Visibility 10.0 miles
Clouds Few 2700 ft
Heat Index 84 °F
Dew Point 75 °F
Humidity 86%
Rainfall 0.00 in
Snow Depth Not available.
6:58 AM 6:11 PM
Waxing Crescent, 33% visible
METAR KPMP 131853Z 33013KT 10SM FEW027 24/13 A3017 RMK AO2 SLP217 T02440133
Pressure 30.17 in
Visibility 10.0 miles
Clouds Few 2700 ft
Heat Index 84 °F
Dew Point 75 °F
Humidity 86%
Rainfall 0.00 in
Snow Depth Not available.
6:58 AM 6:11 PM
Waxing Crescent, 33% visible
METAR KPMP 131853Z 33013KT 10SM FEW027 24/13 A3017 RMK AO2 SLP217 T02440133

10-Day Weather Forecast

Almanac

Astronomy

Feb. 13, 2016 Rise Set
Actual Time
Civil Twilight
Nautical Twilight
Astronomical Twilight
Moon
Length of Visible Light
Length of Day
Tomorrow will be .
, % of the Moon is Illuminated

Today's Extremes

State Highs State Lows

Community

WunderPhotos

Upload Photos

1,892,642 photos uploaded!

WunderBlog® & News

Nearby

Air Quality

  Air Quality AQ Index Pollutant
Not available.

Snow Depth

Station Depth Elevation

Earthquake Activity

City Distance Mag. Time & Date
Minimum magnitude displayed is 2.5.

Coastal Water Temperatures

Place Temperature

Stations

Nearby Weather Stations

Station Location Temp. Windchill Dew Point Humidity Wind Precip. Elev Updated Type
                   

Watches & Warnings

There are currently no watches in effect.